#ZEITBEREICH: 18.05.2023 bis 18.05.2024
Datum;Zeit;NETT NO AM1H [�g/m�];NETT NO2 AM1H [�g/m�];NETT O3 AM1H [�g/m�];NETT PM10F GM24H [�g/m�];NETT WG SM1H [m/s];NETT WR VM1H [�]
18.05.2023;01:00;<7;;58;17;2,3;47
18.05.2023;02:00;<7;;57;17;2,4;46
18.05.2023;03:00;<7;;51;17;2,4;39
18.05.2023;04:00;<7;;48;17;2,6;36
18.05.2023;05:00;<7;;43;17;2,6;43
18.05.2023;06:00;<7;;41;17;2,6;55
18.05.2023;07:00;<7;;45;16;3,3;64
18.05.2023;08:00;<7;;51;16;3,4;64
18.05.2023;09:00;<7;;55;16;3,3;61
18.05.2023;10:00;<7;;65;16;3,4;44
18.05.2023;11:00;<7;;75;17;3,8;49
18.05.2023;12:00;<7;;78;17;4,0;51
18.05.2023;13:00;<7;;81;17;3,9;68
18.05.2023;14:00;<7;;85;17;4,1;53
18.05.2023;15:00;;;87;17;4,3;31
18.05.2023;16:00;<7;<10;90;17;4,2;33
18.05.2023;17:00;<7;<10;90;17;4,2;45
18.05.2023;18:00;<7;10;88;17;4,2;38
18.05.2023;19:00;<7;10;85;17;4,3;28
18.05.2023;20:00;<7;<10;82;17;3,4;24
18.05.2023;21:00;<7;<10;80;17;2,9;16
18.05.2023;22:00;<7;22;59;17;2,5;13
18.05.2023;23:00;<7;15;;17;2,5;27
18.05.2023;24:00;<7;14;63;17;2,7;33
19.05.2023;01:00;<7;<10;66;17;2,9;47
19.05.2023;02:00;<7;10;61;17;2,9;41
19.05.2023;03:00;<7;14;53;17;2,3;44
19.05.2023;04:00;<7;16;48;17;2,0;54
19.05.2023;05:00;<7;24;40;17;2,0;55
19.05.2023;06:00;11;29;33;17;2,1;47
19.05.2023;07:00;11;27;38;18;2,8;55
19.05.2023;08:00;14;27;38;18;3,2;54
19.05.2023;09:00;24;29;42;18;3,1;45
19.05.2023;10:00;12;25;55;19;4,1;41
19.05.2023;11:00;<7;16;75;19;4,7;73
19.05.2023;12:00;11;19;76;19;4,5;62
19.05.2023;13:00;10;17;80;19;3,9;58
19.05.2023;14:00;13;20;83;19;4,3;47
19.05.2023;15:00;8;16;92;19;4,4;47
19.05.2023;16:00;;;96;19;5,1;45
19.05.2023;17:00;8;18;96;20;5,2;45
19.05.2023;18:00;7;17;98;20;5,4;43
19.05.2023;19:00;<7;16;98;20;5,7;41
19.05.2023;20:00;<7;12;98;20;5,0;39
19.05.2023;21:00;<7;13;93;20;3,3;29
19.05.2023;22:00;<7;14;87;20;3,2;31
19.05.2023;23:00;<7;15;83;20;3,8;42
19.05.2023;24:00;<7;13;;20;3,6;43
20.05.2023;01:00;<7;11;75;20;2,9;37
20.05.2023;02:00;<7;13;68;20;2,9;32
20.05.2023;03:00;<7;13;62;19;3,1;36
20.05.2023;04:00;<7;<10;61;19;3,6;43
20.05.2023;05:00;<7;12;56;19;4,1;42
20.05.2023;06:00;<7;13;53;19;4,3;40
20.05.2023;07:00;<7;13;53;18;4,5;37
20.05.2023;08:00;8;15;54;18;5,2;49
20.05.2023;09:00;<7;14;61;18;5,8;59
20.05.2023;10:00;<7;15;67;18;6,1;60
20.05.2023;11:00;<7;13;70;18;6,5;55
20.05.2023;12:00;7;14;67;18;6,3;60
20.05.2023;13:00;9;17;66;18;6,1;54
20.05.2023;14:00;<7;13;73;19;7,1;73
20.05.2023;15:00;<7;14;79;19;6,0;57
20.05.2023;16:00;<7;14;85;19;5,7;46
20.05.2023;17:00;;;89;18;5,6;64
20.05.2023;18:00;<7;<10;91;18;5,6;60
20.05.2023;19:00;<7;11;86;18;4,5;53
20.05.2023;20:00;<7;12;79;18;3,2;57
20.05.2023;21:00;<7;15;72;18;2,7;57
20.05.2023;22:00;<7;12;69;18;3,1;53
20.05.2023;23:00;<7;13;61;18;2,4;49
20.05.2023;24:00;<7;12;58;18;2,3;41
21.05.2023;01:00;<7;12;;18;2,3;34
21.05.2023;02:00;<7;14;44;18;2,0;17
21.05.2023;03:00;<7;12;44;19;2,0;27
21.05.2023;04:00;<7;<10;43;19;2,1;16
21.05.2023;05:00;<7;<10;46;19;2,5;24
21.05.2023;06:00;<7;<10;44;19;2,0;17
21.05.2023;07:00;<7;<10;41;19;2,6;14
21.05.2023;08:00;<7;10;44;19;3,5;27
21.05.2023;09:00;<7;12;46;19;3,2;22
21.05.2023;10:00;<7;<10;53;19;3,2;16
21.05.2023;11:00;<7;<10;53;18;3,6;1
21.05.2023;12:00;<7;<10;63;18;3,4;22
21.05.2023;13:00;<7;<10;74;18;3,9;23
21.05.2023;14:00;<7;<10;83;18;4,2;32
21.05.2023;15:00;<7;<10;90;19;3,7;44
21.05.2023;16:00;<7;<10;92;19;3,7;29
21.05.2023;17:00;<7;11;93;19;3,9;30
21.05.2023;18:00;;;95;20;3,9;28
21.05.2023;19:00;<7;16;90;20;3,7;18
21.05.2023;20:00;<7;11;92;21;3,0;17
21.05.2023;21:00;<7;12;82;21;2,0;2
21.05.2023;22:00;<7;24;63;22;2,2;9
21.05.2023;23:00;<7;11;80;22;2,6;26
21.05.2023;24:00;<7;<10;82;23;2,0;359
22.05.2023;01:00;<7;<10;83;22;2,7;326
22.05.2023;02:00;<7;<10;;22;2,1;326
22.05.2023;03:00;<7;<10;49;22;2,4;292
22.05.2023;04:00;<7;15;28;23;2,5;286
22.05.2023;05:00;<7;19;17;24;2,3;280
22.05.2023;06:00;<7;17;21;24;2,6;271
22.05.2023;07:00;<7;14;27;25;3,1;265
22.05.2023;08:00;;;;26;;
22.05.2023;09:00;;;;26;;
22.05.2023;10:00;;;;26;;
22.05.2023;11:00;;;;27;;
22.05.2023;12:00;;;;27;;
22.05.2023;13:00;;;;27;;
22.05.2023;14:00;;;;;;
22.05.2023;15:00;;;;;;
22.05.2023;16:00;;;;;;
22.05.2023;17:00;;;;;;
22.05.2023;18:00;;;;;;
22.05.2023;19:00;;;;;;
22.05.2023;20:00;;;;;;
22.05.2023;21:00;;;;;;
22.05.2023;22:00;;;;;;
22.05.2023;23:00;;;;;;
22.05.2023;24:00;;;;;;
23.05.2023;01:00;;;;;;
23.05.2023;02:00;;;;;;
23.05.2023;03:00;;;;;;
23.05.2023;04:00;;;;;;
23.05.2023;05:00;;;;;;
23.05.2023;06:00;;;;;;
23.05.2023;07:00;;;;;;
23.05.2023;08:00;;;;;;
23.05.2023;09:00;;;;;;
23.05.2023;10:00;;;;;;
23.05.2023;11:00;;;;;;
23.05.2023;12:00;;;;;;
23.05.2023;13:00;;;;;5,2;335
23.05.2023;14:00;<7;<10;80;;4,8;352
23.05.2023;15:00;<7;<10;82;;4,8;344
23.05.2023;16:00;<7;<10;82;;5,8;346
23.05.2023;17:00;<7;<10;82;;5,3;344
23.05.2023;18:00;<7;<10;80;;5,2;353
23.05.2023;19:00;<7;<10;79;;4,6;359
23.05.2023;20:00;<7;<10;75;;4,6;345
23.05.2023;21:00;<7;12;72;;4,0;356
23.05.2023;22:00;<7;<10;75;;;
23.05.2023;23:00;<7;<10;72;;;
23.05.2023;24:00;<7;<10;65;;2,4;349
24.05.2023;01:00;<7;<10;58;;2,3;344
24.05.2023;02:00;<7;<10;49;;1,8;346
24.05.2023;03:00;<7;<10;42;;1,3;336
24.05.2023;04:00;<7;11;24;;1,6;284
24.05.2023;05:00;<7;24;10;16;2,0;293
24.05.2023;06:00;<7;20;14;15;2,3;284
24.05.2023;07:00;<7;22;19;16;1,2;290
24.05.2023;08:00;<7;19;38;16;1,5;282
24.05.2023;09:00;<7;16;49;16;2,2;347
24.05.2023;10:00;<7;<10;64;16;2,9;347
24.05.2023;11:00;<7;<10;67;17;2,2;314
24.05.2023;12:00;<7;<10;73;17;3,3;8
24.05.2023;13:00;<7;<10;81;17;3,8;5
24.05.2023;14:00;;;83;17;3,6;342
24.05.2023;15:00;<7;17;74;17;3,2;36
24.05.2023;16:00;<7;11;81;17;2,9;19
24.05.2023;17:00;<7;<10;84;17;3,2;7
24.05.2023;18:00;<7;11;81;17;3,0;19
24.05.2023;19:00;<7;14;76;16;2,5;35
24.05.2023;20:00;<7;11;78;16;2,8;12
24.05.2023;21:00;<7;11;75;16;3,0;12
24.05.2023;22:00;<7;20;60;16;2,4;9
24.05.2023;23:00;<7;20;;16;;
24.05.2023;24:00;<7;13;51;16;2,5;6
25.05.2023;01:00;<7;14;48;16;2,5;29
25.05.2023;02:00;<7;13;41;16;1,6;12
25.05.2023;03:00;<7;20;31;16;1,9;21
25.05.2023;04:00;<7;16;41;16;2,3;32
25.05.2023;05:00;<7;27;24;17;1,8;16
25.05.2023;06:00;<7;29;22;17;1,6;18
25.05.2023;07:00;8;24;36;17;2,6;37
25.05.2023;08:00;9;16;54;17;3,2;48
25.05.2023;09:00;9;15;62;17;3,4;44
25.05.2023;10:00;<7;12;67;17;3,3;32
25.05.2023;11:00;<7;10;70;17;4,4;30
25.05.2023;12:00;<7;11;71;17;4,6;19
25.05.2023;13:00;<7;12;73;17;4,9;28
25.05.2023;14:00;<7;13;72;17;3,9;31
25.05.2023;15:00;;;79;17;4,2;44
25.05.2023;16:00;<7;13;83;17;4,6;32
25.05.2023;17:00;<7;12;85;18;4,3;25
25.05.2023;18:00;<7;<10;89;18;4,2;15
25.05.2023;19:00;<7;12;85;18;3,8;19
25.05.2023;20:00;<7;<10;88;18;3,3;16
25.05.2023;21:00;<7;15;77;18;2,6;13
25.05.2023;22:00;<7;11;75;19;3,6;16
25.05.2023;23:00;<7;<10;74;19;3,6;21
25.05.2023;24:00;<7;<10;;20;3,5;26
26.05.2023;01:00;<7;<10;63;20;2,9;26
26.05.2023;02:00;<7;<10;61;21;2,7;29
26.05.2023;03:00;<7;<10;57;21;2,8;29
26.05.2023;04:00;<7;<10;56;21;3,5;31
26.05.2023;05:00;<7;15;46;22;3,4;28
26.05.2023;06:00;<7;15;50;22;3,8;32
26.05.2023;07:00;<7;12;54;22;4,6;32
26.05.2023;08:00;7;12;58;23;5,5;47
26.05.2023;09:00;9;12;60;23;5,2;51
26.05.2023;10:00;8;11;61;24;4,7;40
26.05.2023;11:00;8;12;65;24;4,5;35
26.05.2023;12:00;7;11;72;25;4,8;40
26.05.2023;13:00;10;14;75;25;4,9;38
26.05.2023;14:00;<7;11;83;25;5,3;31
26.05.2023;15:00;9;13;85;26;5,2;30
26.05.2023;16:00;;;90;26;5,5;28
26.05.2023;17:00;<7;13;90;26;5,3;38
26.05.2023;18:00;<7;13;90;26;5,3;36
26.05.2023;19:00;<7;12;92;27;4,8;30
26.05.2023;20:00;11;19;88;27;4,5;42
26.05.2023;21:00;<7;12;84;26;4,1;21
26.05.2023;22:00;<7;<10;72;26;4,1;22
26.05.2023;23:00;<7;<10;67;26;4,0;34
26.05.2023;24:00;<7;10;61;26;3,1;32
27.05.2023;01:00;<7;<10;;25;2,4;30
27.05.2023;02:00;<7;<10;56;25;3,0;42
27.05.2023;03:00;<7;<10;55;25;2,6;51
27.05.2023;04:00;<7;<10;51;25;2,9;50
27.05.2023;05:00;<7;12;49;25;2,8;45
27.05.2023;06:00;<7;17;45;24;2,9;49
27.05.2023;07:00;<7;16;48;24;3,3;65
27.05.2023;08:00;10;19;47;23;3,8;76
27.05.2023;09:00;11;18;50;23;3,0;63
27.05.2023;10:00;10;17;60;23;3,1;67
27.05.2023;11:00;11;19;63;22;3,0;67
27.05.2023;12:00;10;20;76;22;3,6;66
27.05.2023;13:00;9;21;88;22;3,5;59
27.05.2023;14:00;<7;20;98;21;3,5;59
27.05.2023;15:00;<7;18;103;21;3,6;60
27.05.2023;16:00;<7;18;110;21;3,9;54
27.05.2023;17:00;;;115;21;3,7;43
27.05.2023;18:00;<7;19;112;21;3,8;48
27.05.2023;19:00;<7;19;106;21;3,6;43
27.05.2023;20:00;<7;16;102;21;3,2;39
27.05.2023;21:00;<7;20;87;20;2,5;42
27.05.2023;22:00;<7;18;81;20;2,6;41
27.05.2023;23:00;<7;13;77;20;2,3;45
27.05.2023;24:00;<7;12;74;20;2,4;35
28.05.2023;01:00;<7;<10;73;20;2,4;39
28.05.2023;02:00;<7;11;;20;2,1;43
28.05.2023;03:00;<7;13;57;20;2,3;76
28.05.2023;04:00;<7;14;47;20;2,1;7
28.05.2023;05:00;<7;18;41;20;2,1;60
28.05.2023;06:00;<7;14;44;20;1,7;46
28.05.2023;07:00;<7;16;51;20;2,1;65
28.05.2023;08:00;<7;19;52;20;1,8;57
28.05.2023;09:00;<7;23;50;20;1,9;24
28.05.2023;10:00;<7;22;66;19;2,7;56
28.05.2023;11:00;<7;<10;90;19;3,9;57
28.05.2023;12:00;<7;<10;103;19;4,2;35
28.05.2023;13:00;<7;<10;109;18;3,9;49
28.05.2023;14:00;<7;<10;107;18;3,9;28
28.05.2023;15:00;<7;<10;108;18;4,6;34
28.05.2023;16:00;<7;<10;108;17;4,7;25
28.05.2023;17:00;<7;<10;105;17;5,0;21
28.05.2023;18:00;;;110;17;5,1;20
28.05.2023;19:00;<7;<10;117;17;5,1;21
28.05.2023;20:00;<7;<10;110;17;4,6;12
28.05.2023;21:00;<7;<10;96;17;5,4;11
28.05.2023;22:00;<7;<10;80;17;5,7;14
28.05.2023;23:00;<7;<10;74;17;5,2;24
28.05.2023;24:00;<7;<10;70;17;3,8;25
29.05.2023;01:00;<7;<10;66;16;3,5;19
29.05.2023;02:00;<7;<10;57;16;3,9;11
29.05.2023;03:00;<7;<10;;16;4,5;16
29.05.2023;04:00;<7;<10;60;16;3,8;27
29.05.2023;05:00;<7;<10;64;16;3,8;25
29.05.2023;06:00;<7;<10;62;16;4,1;29
29.05.2023;07:00;<7;<10;61;15;5,0;34
29.05.2023;08:00;<7;<10;61;15;4,3;34
29.05.2023;09:00;<7;<10;62;15;4,8;25
29.05.2023;10:00;<7;<10;64;15;4,9;21
29.05.2023;11:00;<7;<10;68;15;5,0;27
29.05.2023;12:00;<7;<10;73;15;5,3;20
29.05.2023;13:00;<7;<10;78;15;4,8;35
29.05.2023;14:00;<7;<10;82;15;5,3;17
29.05.2023;15:00;<7;<10;85;15;5,5;21
29.05.2023;16:00;<7;<10;87;15;4,7;24
29.05.2023;17:00;<7;<10;93;15;5,0;23
29.05.2023;18:00;<7;<10;96;15;5,2;21
29.05.2023;19:00;;;95;15;5,2;20
29.05.2023;20:00;<7;<10;94;15;5,2;16
29.05.2023;21:00;<7;<10;84;15;4,2;14
29.05.2023;22:00;<7;<10;78;15;4,6;14
29.05.2023;23:00;<7;<10;76;15;4,1;15
29.05.2023;24:00;<7;<10;74;15;4,2;22
30.05.2023;01:00;<7;<10;70;15;3,5;24
30.05.2023;02:00;<7;<10;65;15;2,8;22
30.05.2023;03:00;<7;<10;58;16;2,2;22
30.05.2023;04:00;<7;<10;;16;2,5;19
30.05.2023;05:00;<7;11;53;16;3,3;26
30.05.2023;06:00;<7;12;56;16;4,5;29
30.05.2023;07:00;<7;11;64;17;5,4;41
30.05.2023;08:00;<7;10;67;17;5,1;35
30.05.2023;09:00;7;<10;71;18;4,7;39
30.05.2023;10:00;<7;11;72;18;4,2;38
30.05.2023;11:00;<7;10;75;18;4,3;32
30.05.2023;12:00;;;;18;4,2;31
30.05.2023;13:00;;;;18;4,1;29
30.05.2023;14:00;<7;11;92;18;4,0;27
30.05.2023;15:00;<7;<10;96;18;4,3;28
30.05.2023;16:00;<7;10;97;;4,3;29
30.05.2023;17:00;<7;13;94;;4,5;35
30.05.2023;18:00;<7;<10;93;;4,9;21
30.05.2023;19:00;<7;<10;77;;6,0;8
30.05.2023;20:00;<7;<10;69;;5,2;14
30.05.2023;21:00;<7;<10;62;;4,7;28
30.05.2023;22:00;<7;<10;55;;4,7;41
30.05.2023;23:00;<7;<10;54;;4,1;47
30.05.2023;24:00;<7;<10;51;;3,6;44
31.05.2023;01:00;<7;<10;50;;3,8;40
31.05.2023;02:00;<7;<10;47;;3,9;43
31.05.2023;03:00;<7;<10;46;;3,4;41
31.05.2023;04:00;<7;12;41;;3,1;44
31.05.2023;05:00;<7;18;33;;2,6;47
31.05.2023;06:00;<7;19;29;;3,0;42
31.05.2023;07:00;11;21;31;;3,0;52
31.05.2023;08:00;10;19;36;;3,7;52
31.05.2023;09:00;9;20;41;;3,4;43
31.05.2023;10:00;11;22;50;;3,2;56
31.05.2023;11:00;7;19;69;;4,3;48
31.05.2023;12:00;<7;17;89;;5,0;59
31.05.2023;13:00;<7;17;99;;5,6;48
31.05.2023;14:00;;;106;18;5,7;54
31.05.2023;15:00;<7;16;107;19;5,6;61
31.05.2023;16:00;<7;15;102;19;5,1;43
31.05.2023;17:00;<7;15;103;19;5,4;40
31.05.2023;18:00;<7;14;105;19;5,6;42
31.05.2023;19:00;<7;14;102;19;5,3;44
31.05.2023;20:00;<7;12;99;19;4,6;43
31.05.2023;21:00;<7;16;91;19;3,2;42
31.05.2023;22:00;<7;21;80;19;2,6;28
31.05.2023;23:00;<7;17;;19;3,3;15
31.05.2023;24:00;<7;12;63;19;3,5;23
01.06.2023;01:00;<7;<10;61;19;3,4;25
01.06.2023;02:00;<7;<10;57;19;3,2;17
01.06.2023;03:00;<7;12;49;19;2,9;15
01.06.2023;04:00;<7;10;48;19;3,2;15
01.06.2023;05:00;<7;<10;49;19;3,6;14
01.06.2023;06:00;<7;<10;53;19;4,1;17
01.06.2023;07:00;<7;11;55;19;3,5;16
01.06.2023;08:00;<7;12;57;18;3,6;26
01.06.2023;09:00;<7;<10;64;18;3,5;12
01.06.2023;10:00;<7;<10;72;18;3,9;2
01.06.2023;11:00;<7;<10;75;18;3,5;357
01.06.2023;12:00;<7;<10;85;18;3,7;359
01.06.2023;13:00;<7;<10;91;18;3,9;8
01.06.2023;14:00;<7;11;93;17;3,3;14
01.06.2023;15:00;;;100;17;4,4;356
01.06.2023;16:00;<7;<10;108;17;4,7;342
01.06.2023;17:00;<7;<10;105;17;4,6;8
01.06.2023;18:00;<7;<10;96;17;5,6;12
01.06.2023;19:00;<7;<10;80;17;5,7;350
01.06.2023;20:00;<7;<10;74;17;4,9;6
01.06.2023;21:00;<7;<10;73;17;4,3;3
01.06.2023;22:00;<7;<10;73;17;4,3;1
01.06.2023;23:00;<7;<10;72;17;;
01.06.2023;24:00;<7;<10;;17;4,2;5
02.06.2023;01:00;<7;<10;76;16;4,0;4
02.06.2023;02:00;<7;<10;77;16;4,1;3
02.06.2023;03:00;<7;<10;78;16;3,8;1
02.06.2023;04:00;<7;<10;79;16;3,7;3
02.06.2023;05:00;<7;<10;75;16;2,8;26
02.06.2023;06:00;<7;<10;74;17;3,1;16
02.06.2023;07:00;<7;10;74;17;3,6;7
02.06.2023;08:00;<7;<10;78;17;3,5;12
02.06.2023;09:00;<7;<10;76;17;3,3;8
02.06.2023;10:00;<7;10;74;17;3,1;3
02.06.2023;11:00;7;12;76;17;3,7;42
02.06.2023;12:00;<7;<10;81;17;3,5;25
02.06.2023;13:00;<7;12;79;17;4,1;48
02.06.2023;14:00;8;13;78;18;4,7;48
02.06.2023;15:00;7;13;81;18;5,1;49
02.06.2023;16:00;;;81;18;5,1;52
02.06.2023;17:00;8;17;81;19;5,1;46
02.06.2023;18:00;<7;14;85;19;4,8;55
02.06.2023;19:00;<7;13;87;19;4,2;64
02.06.2023;20:00;<7;13;85;19;3,7;47
02.06.2023;21:00;<7;14;77;19;2,5;44
02.06.2023;22:00;<7;17;68;19;2,4;36
02.06.2023;23:00;<7;19;60;20;2,5;38
02.06.2023;24:00;<7;14;66;20;2,7;49
03.06.2023;01:00;<7;17;;21;2,2;58
03.06.2023;02:00;<7;19;50;21;2,6;57
03.06.2023;03:00;<7;19;47;21;2,7;58
03.06.2023;04:00;<7;20;43;21;2,7;56
03.06.2023;05:00;<7;22;40;21;2,8;59
03.06.2023;06:00;<7;24;38;21;3,5;59
03.06.2023;07:00;<7;23;42;21;3,4;62
03.06.2023;08:00;7;21;49;20;4,1;63
03.06.2023;09:00;9;21;54;20;4,2;51
03.06.2023;10:00;7;15;70;21;5,7;50
03.06.2023;11:00;<7;11;81;21;5,6;57
03.06.2023;12:00;7;14;84;21;5,4;58
03.06.2023;13:00;<7;13;90;21;4,8;56
03.06.2023;14:00;<7;13;94;20;4,9;52
03.06.2023;15:00;<7;15;96;20;5,4;45
03.06.2023;16:00;<7;12;102;19;5,2;52
03.06.2023;17:00;;;103;19;5,6;45
03.06.2023;18:00;<7;10;98;19;5,3;46
03.06.2023;19:00;<7;<10;94;18;5,1;50
03.06.2023;20:00;<7;10;92;18;5,2;40
03.06.2023;21:00;<7;13;87;17;3,8;38
03.06.2023;22:00;<7;12;84;17;3,2;41
03.06.2023;23:00;<7;12;72;17;2,1;40
03.06.2023;24:00;<7;14;69;16;2,3;44
04.06.2023;01:00;<7;12;67;16;2,4;47
04.06.2023;02:00;<7;12;;15;2,8;38
04.06.2023;03:00;<7;11;61;15;2,5;36
04.06.2023;04:00;<7;<10;58;15;2,1;34
04.06.2023;05:00;<7;10;53;14;2,6;32
04.06.2023;06:00;<7;<10;54;14;2,4;40
04.06.2023;07:00;<7;14;52;14;2,8;44
04.06.2023;08:00;<7;18;52;14;3,0;54
04.06.2023;09:00;<7;21;54;13;3,1;48
04.06.2023;10:00;8;20;68;13;3,5;52
04.06.2023;11:00;<7;13;85;12;4,2;59
04.06.2023;12:00;<7;<10;95;12;4,1;61
04.06.2023;13:00;<7;10;105;12;4,2;65
04.06.2023;14:00;<7;<10;110;12;4,6;42
04.06.2023;15:00;<7;<10;113;11;4,0;51
04.06.2023;16:00;<7;<10;113;11;4,5;46
04.06.2023;17:00;<7;<10;115;11;4,4;57
04.06.2023;18:00;;;113;10;4,2;45
04.06.2023;19:00;<7;<10;109;10;4,4;39
04.06.2023;20:00;<7;11;102;10;4,0;39
04.06.2023;21:00;<7;13;92;10;2,6;35
04.06.2023;22:00;<7;12;87;10;2,8;36
04.06.2023;23:00;<7;<10;78;11;3,4;20
04.06.2023;24:00;<7;<10;71;11;3,6;22
05.06.2023;01:00;<7;<10;65;11;3,4;23
05.06.2023;02:00;<7;<10;60;11;2,8;21
05.06.2023;03:00;<7;<10;;11;2,7;20
05.06.2023;04:00;<7;<10;51;11;3,2;31
05.06.2023;05:00;<7;14;45;11;3,0;37
05.06.2023;06:00;<7;17;40;11;2,9;35
05.06.2023;07:00;11;20;40;11;3,4;40
05.06.2023;08:00;10;21;40;11;3,2;42
05.06.2023;09:00;<7;17;45;12;2,9;23
05.06.2023;10:00;<7;12;54;12;3,1;5
05.06.2023;11:00;<7;12;62;12;3,6;7
05.06.2023;12:00;<7;11;75;12;4,1;11
05.06.2023;13:00;<7;<10;88;12;4,0;16
05.06.2023;14:00;<7;11;99;12;3,8;37
05.06.2023;15:00;<7;15;107;13;4,0;46
05.06.2023;16:00;<7;11;112;13;4,5;21
05.06.2023;17:00;<7;11;113;13;4,8;17
05.06.2023;18:00;<7;<10;114;13;4,7;16
05.06.2023;19:00;;;113;14;4,8;9
05.06.2023;20:00;<7;<10;110;14;4,1;7
05.06.2023;21:00;<7;13;103;14;3,6;9
05.06.2023;22:00;<7;17;91;14;3,4;5
05.06.2023;23:00;<7;14;79;14;3,2;15
05.06.2023;24:00;<7;<10;75;15;3,4;21
06.06.2023;01:00;<7;<10;69;15;3,1;18
06.06.2023;02:00;<7;11;61;15;2,8;13
06.06.2023;03:00;<7;12;54;15;3,0;16
06.06.2023;04:00;<7;13;;15;2,8;10
06.06.2023;05:00;<7;18;41;15;2,2;16
06.06.2023;06:00;<7;24;35;15;2,5;16
06.06.2023;07:00;<7;17;43;15;3,0;28
06.06.2023;08:00;<7;14;48;15;3,1;17
06.06.2023;09:00;<7;12;52;15;3,5;3
06.06.2023;10:00;<7;12;55;15;3,5;5
06.06.2023;11:00;<7;10;67;15;3,7;1
06.06.2023;12:00;8;13;80;15;3,8;0
06.06.2023;13:00;<7;11;96;15;4,0;12
06.06.2023;14:00;7;16;103;16;3,9;24
06.06.2023;15:00;<7;12;114;15;4,0;22
06.06.2023;16:00;<7;15;119;16;3,2;36
06.06.2023;17:00;7;23;114;16;3,7;47
06.06.2023;18:00;<7;16;123;16;3,2;41
06.06.2023;19:00;<7;20;115;16;3,5;47
06.06.2023;20:00;;;103;16;2,6;61
06.06.2023;21:00;<7;19;94;17;2,1;29
06.06.2023;22:00;<7;18;82;17;3,5;15
06.06.2023;23:00;<7;10;81;17;3,0;25
06.06.2023;24:00;<7;11;74;18;2,9;19
07.06.2023;01:00;<7;13;68;18;2,4;12
07.06.2023;02:00;<7;12;62;18;2,4;11
07.06.2023;03:00;<7;14;55;18;2,2;19
07.06.2023;04:00;<7;18;45;18;1,9;13
07.06.2023;05:00;<7;21;;19;2,1;11
07.06.2023;06:00;<7;25;35;19;2,4;17
07.06.2023;07:00;<7;21;40;19;2,4;16
07.06.2023;08:00;<7;15;46;19;3,0;20
07.06.2023;09:00;<7;17;44;20;2,6;25
07.06.2023;10:00;<7;17;45;20;3,1;19
07.06.2023;11:00;<7;22;39;20;2,7;19
07.06.2023;12:00;<7;19;41;20;3,1;8
07.06.2023;13:00;<7;19;44;20;2,9;12
07.06.2023;14:00;<7;13;60;20;3,0;349
07.06.2023;15:00;<7;10;83;20;3,6;357
07.06.2023;16:00;<7;12;96;21;4,9;23
07.06.2023;17:00;<7;18;97;21;3,9;35
07.06.2023;18:00;<7;17;103;21;3,7;40
07.06.2023;19:00;<7;16;104;21;3,6;39
07.06.2023;20:00;<7;13;107;21;4,0;60
07.06.2023;21:00;;;100;21;1,3;46
07.06.2023;22:00;<7;17;84;21;1,4;44
07.06.2023;23:00;<7;23;72;21;2,5;18
07.06.2023;24:00;<7;12;75;21;2,7;22
08.06.2023;01:00;<7;11;72;21;2,9;13
08.06.2023;02:00;<7;13;62;21;2,9;14
08.06.2023;03:00;<7;10;58;21;2,8;16
08.06.2023;04:00;<7;<10;56;21;3,2;28
08.06.2023;05:00;<7;11;51;21;2,2;24
08.06.2023;06:00;<7;11;;21;2,4;31
08.06.2023;07:00;<7;11;52;21;3,4;38
08.06.2023;08:00;<7;13;54;21;3,6;49
08.06.2023;09:00;<7;17;57;20;3,5;42
08.06.2023;10:00;<7;16;67;20;3,8;34
08.06.2023;11:00;<7;12;76;20;4,0;50
08.06.2023;12:00;<7;11;82;20;4,0;52
08.06.2023;13:00;<7;<10;98;20;4,2;45
08.06.2023;14:00;<7;10;112;20;4,6;55
08.06.2023;15:00;<7;<10;121;20;4,4;42
08.06.2023;16:00;<7;11;134;20;5,2;54
08.06.2023;17:00;<7;15;130;20;4,6;54
08.06.2023;18:00;<7;<10;131;20;4,8;47
08.06.2023;19:00;<7;12;126;20;4,7;56
08.06.2023;20:00;<7;10;122;20;3,8;57
08.06.2023;21:00;<7;14;111;20;2,9;58
08.06.2023;22:00;;;105;20;2,9;53
08.06.2023;23:00;<7;11;103;20;2,9;51
08.06.2023;24:00;<7;14;89;19;2,1;72
09.06.2023;01:00;<7;17;69;19;1,8;61
09.06.2023;02:00;<7;26;56;20;2,3;31
09.06.2023;03:00;<7;13;74;20;2,8;44
09.06.2023;04:00;<7;11;69;20;2,8;62
09.06.2023;05:00;<7;26;50;20;2,7;71
09.06.2023;06:00;<7;32;41;20;2,3;66
09.06.2023;07:00;10;29;;21;2,5;62
09.06.2023;08:00;9;26;54;21;2,7;78
09.06.2023;09:00;8;24;72;22;3,0;94
09.06.2023;10:00;<7;20;101;22;3,7;101
09.06.2023;11:00;<7;19;113;22;3,5;107
09.06.2023;12:00;<7;17;124;22;4,0;93
09.06.2023;13:00;<7;15;135;22;4,0;102
09.06.2023;14:00;<7;12;138;22;4,0;101
09.06.2023;15:00;<7;12;135;22;4,1;112
09.06.2023;16:00;<7;13;135;22;4,1;104
09.06.2023;17:00;<7;16;132;22;5,2;70
09.06.2023;18:00;<7;14;130;22;4,6;81
09.06.2023;19:00;<7;14;125;22;3,9;81
09.06.2023;20:00;<7;15;122;22;3,9;86
09.06.2023;21:00;<7;<10;124;22;3,7;110
09.06.2023;22:00;<7;19;107;22;3,8;78
09.06.2023;23:00;;;107;22;3,7;74
09.06.2023;24:00;<7;14;99;22;3,4;75
10.06.2023;01:00;<7;15;95;22;2,9;74
10.06.2023;02:00;<7;15;81;23;2,2;73
10.06.2023;03:00;<7;18;71;22;2,3;70
10.06.2023;04:00;<7;21;73;22;2,5;77
10.06.2023;05:00;<7;24;69;23;2,5;78
10.06.2023;06:00;<7;27;65;23;2,7;73
10.06.2023;07:00;<7;28;64;23;2,9;73
10.06.2023;08:00;<7;28;70;23;3,3;65
10.06.2023;09:00;8;27;80;23;3,3;61
10.06.2023;10:00;8;24;97;22;2,9;66
10.06.2023;11:00;<7;24;109;22;3,3;62
10.06.2023;12:00;7;27;116;23;3,7;66
10.06.2023;13:00;<7;25;147;23;4,2;49
10.06.2023;14:00;<7;17;151;23;4,3;57
10.06.2023;15:00;<7;13;149;24;4,3;80
10.06.2023;16:00;<7;<10;144;24;4,4;90
10.06.2023;17:00;<7;11;140;24;3,7;92
10.06.2023;18:00;<7;13;129;24;3,2;82
10.06.2023;19:00;<7;15;125;24;3,1;61
10.06.2023;20:00;<7;16;130;24;3,6;54
10.06.2023;21:00;<7;15;122;24;3,3;56
10.06.2023;22:00;<7;15;111;24;2,9;60
10.06.2023;23:00;<7;16;;24;2,8;69
10.06.2023;24:00;;;90;24;2,5;79
11.06.2023;01:00;<7;21;66;24;2,2;79
11.06.2023;02:00;<7;16;75;24;2,4;86
11.06.2023;03:00;<7;15;72;24;2,3;87
11.06.2023;04:00;<7;16;65;24;2,2;94
11.06.2023;05:00;<7;15;64;24;2,3;93
11.06.2023;06:00;<7;13;74;24;2,7;98
11.06.2023;07:00;<7;<10;83;23;3,2;116
11.06.2023;08:00;<7;<10;87;23;3,9;126
11.06.2023;09:00;<7;<10;94;23;4,3;122
11.06.2023;10:00;<7;<10;106;23;4,7;108
11.06.2023;11:00;<7;<10;116;23;5,6;117
11.06.2023;12:00;<7;<10;126;22;5,0;118
11.06.2023;13:00;<7;<10;129;22;5,9;123
11.06.2023;14:00;<7;<10;136;22;6,1;115
11.06.2023;15:00;<7;<10;138;22;6,0;119
11.06.2023;16:00;<7;<10;140;22;5,4;112
11.06.2023;17:00;<7;<10;140;22;4,9;115
11.06.2023;18:00;<7;<10;142;21;4,7;116
11.06.2023;19:00;<7;<10;136;21;3,3;125
11.06.2023;20:00;<7;<10;125;21;3,7;97
11.06.2023;21:00;<7;<10;114;21;3,5;88
11.06.2023;22:00;<7;11;106;21;3,6;83
11.06.2023;23:00;<7;11;98;21;3,3;84
11.06.2023;24:00;<7;12;;20;2,7;91
12.06.2023;01:00;;;81;20;2,5;98
12.06.2023;02:00;<7;16;72;20;2,3;87
12.06.2023;03:00;<7;24;52;20;2,1;95
12.06.2023;04:00;<7;26;50;20;1,8;73
12.06.2023;05:00;<7;35;46;20;2,4;74
12.06.2023;06:00;<7;43;45;20;2,3;77
12.06.2023;07:00;10;39;53;21;2,7;83
12.06.2023;08:00;8;29;71;22;3,0;97
12.06.2023;09:00;<7;21;97;22;3,7;98
12.06.2023;10:00;<7;17;108;22;4,3;89
12.06.2023;11:00;<7;16;122;23;4,2;93
12.06.2023;12:00;<7;12;140;23;4,9;92
12.06.2023;13:00;<7;12;144;23;4,4;96
12.06.2023;14:00;<7;10;143;23;4,6;93
12.06.2023;15:00;<7;12;138;23;3,3;98
12.06.2023;16:00;<7;16;139;23;2,9;90
12.06.2023;17:00;<7;12;141;23;5,2;77
12.06.2023;18:00;<7;13;135;23;5,4;77
12.06.2023;19:00;<7;13;132;24;4,7;81
12.06.2023;20:00;<7;11;128;24;4,4;77
12.06.2023;21:00;<7;14;119;24;3,5;73
12.06.2023;22:00;<7;20;104;24;3,3;71
12.06.2023;23:00;<7;14;101;24;3,6;72
12.06.2023;24:00;<7;18;85;24;3,1;69
13.06.2023;01:00;<7;18;;24;2,6;75
13.06.2023;02:00;;;64;24;2,1;81
13.06.2023;03:00;<7;18;63;24;1,9;75
13.06.2023;04:00;<7;19;67;24;2,4;70
13.06.2023;05:00;<7;31;59;23;2,4;67
13.06.2023;06:00;<7;32;64;23;2,9;73
13.06.2023;07:00;9;37;61;23;2,6;71
13.06.2023;08:00;<7;27;76;22;3,5;89
13.06.2023;09:00;<7;21;94;22;4,5;96
13.06.2023;10:00;<7;18;107;22;5,0;101
13.06.2023;11:00;<7;14;120;22;5,0;107
13.06.2023;12:00;<7;13;130;22;4,6;93
13.06.2023;13:00;<7;14;138;22;4,8;75
13.06.2023;14:00;<7;16;145;22;4,1;77
13.06.2023;15:00;<7;16;152;23;4,3;73
13.06.2023;16:00;<7;16;153;23;4,1;63
13.06.2023;17:00;<7;18;148;22;4,1;53
13.06.2023;18:00;<7;19;143;22;4,6;57
13.06.2023;19:00;<7;20;134;22;4,7;49
13.06.2023;20:00;<7;21;124;22;3,6;49
13.06.2023;21:00;<7;22;113;22;2,8;48
13.06.2023;22:00;<7;19;112;23;2,7;55
13.06.2023;23:00;<7;26;100;23;2,4;58
13.06.2023;24:00;<7;29;81;23;2,0;68
14.06.2023;01:00;<7;23;81;23;1,9;61
14.06.2023;02:00;<7;19;;24;2,7;48
14.06.2023;03:00;;;84;24;2,6;49
14.06.2023;04:00;<7;18;76;24;2,6;66
14.06.2023;05:00;<7;29;61;24;2,4;69
14.06.2023;06:00;<7;33;55;25;2,9;71
14.06.2023;07:00;7;30;56;25;4,1;72
14.06.2023;08:00;<7;24;68;25;5,0;80
14.06.2023;09:00;<7;17;82;25;5,2;82
14.06.2023;10:00;<7;12;95;25;5,5;73
14.06.2023;11:00;10;16;96;24;5,2;64
14.06.2023;12:00;7;13;103;25;5,7;55
14.06.2023;13:00;<7;15;111;25;4,9;55
14.06.2023;14:00;<7;14;109;24;5,2;60
14.06.2023;15:00;<7;13;112;24;5,6;66
14.06.2023;16:00;<7;15;114;25;5,2;64
14.06.2023;17:00;<7;14;118;25;5,0;59
14.06.2023;18:00;<7;13;117;24;5,3;54
14.06.2023;19:00;<7;13;113;24;5,1;61
14.06.2023;20:00;<7;13;107;24;4,3;61
14.06.2023;21:00;<7;16;96;24;2,8;62
14.06.2023;22:00;<7;21;80;23;2,2;57
14.06.2023;23:00;<7;18;76;23;2,4;67